H-2A DEB (43675 NORAD) Tracking and Keplerian Element Data

This shows tracking and keplerian element data for the satellite.

Feedback or suggestion? Click here.




ElementValue
Catalog43675
NameH-2A DEB
Epoch Orbit442
Epoch Day331.9360298
Epoch Year2018
RAAN82.2005
Inclination97.8517
Eccentricity0.001736
Argument of Perigee196.2676
Mean Anonmoly163.7986
Mean Motion14.88214356
Decay Rate-9.5E-07
L11 43675U 18084E 18331.93602980 -.00000095 00000-0 -41719-5 0 9992
L22 43675 97.8517 82.2005 0017360 196.2676 163.7986 14.88214356 4427

Live tracking and technical data element details for H-2A DEB (NORAD 43675). H-2A DEB can be tracked NOW for your location showing map with azimuth and elevation plus other details from your city location.

Track the satellite on the map from your city or location and see movement details for azimuth, elevation, latitude, longitude, range, height, and movement on the map or in text.







IsCatalogInMostPopularTable: catalog: 43675, numindb: 72
Update: records affected: 1



GetName: 43675 H-2A DEB

Hit Count: updated at: Thu, 25 Apr 2019 19:42:17 GMT